Regional Weather Roundup
Issued by NWS

Home | Current Version | Previous Version | Text Only | Print | Product List | Glossary Off
Versions: 1 2 3 4 5 6 7 8 9 10 11 12 13 14 15 16 17 18 19 20 21 22 23 24 25 26 27 28 29 30 31 32 33 34 35 36 37 38 39 40 41 42 43 44 45 46 47 48 49 50

000
ASUS43 KLMK 191602
RWRKY
KENTUCKY REGIONAL WEATHER ROUNDUP
NATIONAL WEATHER SERVICE LOUISVILLE KY
1200 PM EDT TUE SEP 19 2017

NOTE "FAIR" INDICATES FEW OR NO CLOUDS BELOW 12,000 FEET
WITH NO SIGNIFICANT WEATHER AND/OR OBSTRUCTIONS TO VISIBILITY.

KYZ001>023-026-027-061>063-070>075-191700-
WESTERN AND SOUTH CENTRAL KENTUCKY

CITY           SKY/WX    TMP DP  RH WIND       PRES   REMARKS
PADUCAH        PTSUNNY   80  70  71 E3        29.98S
HENDERSON      CLOUDY    74  70  87 S3        30.00S
OWENSBORO      PTSUNNY   74  70  87 S7        30.00F
HOPKINSVILLE   PTSUNNY   75  72  88 N9        30.00S THUNDER
BOWLING GREEN  CLOUDY    71  69  93 NE6       30.02S
GLASGOW        LGT RAIN  70  70 100 CALM      30.04F
$$

KYZ024-025-028>034-038-045-046-053-191700-
NORTH CENTRAL KENTUCKY

CITY           SKY/WX    TMP DP  RH WIND       PRES   REMARKS
LOUISVILLE/SDF LGT RAIN  69  67  93 E7        29.99F
LOUISVILLE/LOU LGT RAIN  70  69  97 SE5       30.00F
FORT KNOX      NOT AVBL
$$

KYZ035>037-039>044-047>052-055>060-089>105-191700-
NORTHEAST KENTUCKY

CITY           SKY/WX    TMP DP  RH WIND       PRES   REMARKS
LEXINGTON      CLOUDY    73  68  84 NW9       30.05F
COVINGTON      LGT RAIN  70  70 100 S8        30.02S FOG
FRANKFORT      LGT RAIN  70  67  90 VRB3      30.03F
$$

KYZ054-064>069-076>088-106>120-191700-
SOUTHEAST KENTUCKY

CITY           SKY/WX    TMP DP  RH WIND       PRES   REMARKS
JACKSON        CLOUDY    75  64  68 VRB3      30.06R
LONDON         PTSUNNY   80  64  58 SW6       30.06R
SOMERSET       NOT AVBL
MIDDLESBORO    MOSUNNY   79  64  61 E3        30.07S
MONTICELLO     MOSUNNY   82  68  62 W14       30.06S
$$





USA.gov is the U.S. government's official web portal to all federal, state and local government web resources and services.